Alexandria Esle, LA

6:56 PM CDT on May 26, 2017 (GMT -0500)
Alexandria Esler Regional

Weather History for KESF - November, 2012

Change the Weather History Date:

Tuesday, November 6, 2012

  Actual Average Record
Temperature  
Mean Temperature 54 °F -  
Max Temperature 63 °F 70 °F 88 °F (2015)
Min Temperature 45 °F 44 °F 28 °F (2010)
Degree Days  
Heating Degree Days 11    
Growing Degree Days 4 (Base 50)    
Moisture  
Dew Point 50 °F    
Average Humidity 80    
Maximum Humidity 94    
Minimum Humidity 54    
Precipitation  
Precipitation 0.00 in - - ()
Sea Level Pressure  
Sea Level Pressure 30.06 in    
Wind  
Wind Speed 2 mph (North)    
Max Wind Speed 9 mph    
Max Gust Speed 17 mph    
Visibility 8 miles    
Events      
Averages and records for this station are not official NWS values.
T = Trace of Precipitation, MM = Missing Value Source: NWS Daily Summary

Daily Weather History Graph

Daily Weather History Graph

Search for Another Location

Airport or City:

Trip Planner

Search our weather history database for the weather conditions in past years. The results will help you decide how hot, cold, wet, or windy it might be!

Date:

Astronomy

Nov. 06, 2012 Rise Set
Actual Time 6:29 AM CST 5:15 PM CST
Civil Twilight 6:04 AM CST 5:41 PM CST
Nautical Twilight 5:35 AM CST 6:10 PM CST
Astronomical Twilight 5:06 AM CST 6:38 PM CST
Moon 11:50 PM CST (11/6) 12:25 PM CST (11/6)
Length of Visible Light 11h 36m
Length of Day
10h 46m
Waning Gibbous, 53% of the Moon is Illuminated
Nov 6
Waning Gibbous
Nov 6
Last Quarter
Nov 13
New
Nov 20
First Quarter
Nov 28
Full

Hourly Weather History & Observations

Time (CST) Temp. Dew Point Humidity Pressure Visibility Wind Dir Wind Speed Gust Speed Precip Events Conditions
12:17 AM 59.0 °F 55.4 °F 88% 29.99 in 3.0 mi Calm Calm - N/A   Overcast
12:53 AM 57.9 °F 55.9 °F 93% 29.98 in 5.0 mi ENE 3.5 mph - N/A   Overcast
1:53 AM 57.9 °F 55.0 °F 90% 29.99 in 6.0 mi Calm Calm - N/A   Overcast
2:37 AM 57.2 °F 55.4 °F 94% 30.00 in 7.0 mi Calm Calm - N/A   Overcast
2:53 AM 57.9 °F 55.0 °F 90% 30.00 in 7.0 mi Calm Calm - N/A   Overcast
3:53 AM 57.9 °F 54.0 °F 87% 30.01 in 9.0 mi NNW 5.8 mph - N/A   Overcast
4:05 AM 57.2 °F 53.6 °F 88% 30.01 in 10.0 mi Calm Calm - N/A   Overcast
4:53 AM 57.9 °F 52.0 °F 81% 30.02 in 10.0 mi North 5.8 mph - N/A   Overcast
5:53 AM 57.0 °F 53.1 °F 87% 30.03 in 10.0 mi West 3.5 mph - N/A   Overcast
6:18 AM 57.2 °F 53.6 °F 88% 30.04 in 10.0 mi Calm Calm - N/A   Overcast
6:53 AM 57.0 °F 53.1 °F 87% 30.05 in 9.0 mi Calm Calm - N/A   Overcast
7:13 AM 57.2 °F 53.6 °F 88% 30.06 in 10.0 mi Calm Calm - N/A   Overcast
7:38 AM 57.2 °F 53.6 °F 88% 30.07 in 10.0 mi NE 4.6 mph - N/A   Overcast
7:53 AM 59.0 °F 53.1 °F 81% 30.08 in 10.0 mi Variable 4.6 mph - N/A   Overcast
8:23 AM 57.2 °F 51.8 °F 82% 30.09 in 10.0 mi Calm Calm - N/A   Overcast
8:40 AM 59.0 °F 51.8 °F 77% 30.09 in 10.0 mi Calm Calm - N/A   Overcast
8:51 AM 59.0 °F 51.8 °F 77% 30.09 in 10.0 mi Variable 4.6 mph - N/A   Overcast
8:53 AM 59.0 °F 51.1 °F 75% 30.09 in 10.0 mi NNE 3.5 mph - N/A   Overcast
9:37 AM 60.8 °F 51.8 °F 72% 30.10 in 10.0 mi Variable 3.5 mph - N/A   Mostly Cloudy
9:53 AM 57.9 °F 50.0 °F 75% 30.09 in 10.0 mi NNW 4.6 mph - N/A   Overcast
10:03 AM 60.8 °F 51.8 °F 72% 30.10 in 10.0 mi North 4.6 mph - N/A   Mostly Cloudy
10:53 AM 60.1 °F 50.0 °F 69% 30.10 in 10.0 mi NW 9.2 mph 17.3 mph N/A   Mostly Cloudy
11:53 AM 63.0 °F 48.9 °F 60% 30.09 in 10.0 mi North 8.1 mph - N/A   Scattered Clouds
12:30 PM 60.8 °F 48.2 °F 63% 30.07 in 10.0 mi NW 4.6 mph - N/A   Mostly Cloudy
12:40 PM 62.6 °F 48.2 °F 59% 30.07 in 10.0 mi North 6.9 mph - N/A   Mostly Cloudy
12:48 PM 60.8 °F 46.4 °F 59% 30.07 in 10.0 mi NNW 9.2 mph - N/A   Overcast
12:53 PM 61.0 °F 48.0 °F 62% 30.06 in 10.0 mi NW 9.2 mph - N/A   Overcast
1:11 PM 62.6 °F 48.2 °F 59% 30.07 in 10.0 mi Variable 5.8 mph - N/A   Mostly Cloudy
1:53 PM 62.1 °F 46.0 °F 56% 30.06 in 10.0 mi NNE 9.2 mph - N/A   Scattered Clouds
2:53 PM 63.0 °F 46.0 °F 54% 30.04 in 10.0 mi Calm Calm - N/A   Partly Cloudy
3:53 PM 63.0 °F 46.0 °F 54% 30.04 in 10.0 mi North 3.5 mph - N/A   Clear
4:53 PM 60.1 °F 48.9 °F 67% 30.04 in 10.0 mi Calm Calm - N/A   Clear
5:53 PM 54.0 °F 48.9 °F 83% 30.06 in 10.0 mi Calm Calm - N/A   Clear
6:53 PM 50.0 °F 46.9 °F 89% 30.07 in 6.0 mi Calm Calm - N/A   Clear
7:53 PM 48.0 °F 46.0 °F 93% 30.07 in 6.0 mi Calm Calm - N/A   Clear
8:31 PM 46.4 °F 44.6 °F 93% 30.08 in 1.8 mi Calm Calm - N/A   Clear
8:53 PM 46.9 °F 45.0 °F 93% 30.09 in 1.0 mi Calm Calm - N/A   Clear
9:08 PM 46.4 °F 44.6 °F 93% 30.09 in 3.0 mi Calm Calm - N/A   Clear
9:15 PM 46.4 °F 44.6 °F 93% 30.09 in 1.8 mi Calm Calm - N/A   Clear
9:45 PM 46.4 °F 44.6 °F 93% 30.09 in 3.0 mi Calm Calm - N/A   Clear
9:53 PM 45.0 °F 43.0 °F 93% 30.08 in 7.0 mi Calm Calm - N/A   Clear
10:53 PM 46.0 °F 43.0 °F 89% 30.08 in 5.0 mi Calm Calm - N/A   Clear
11:53 PM 45.0 °F 43.0 °F 93% 30.08 in 4.0 mi Calm Calm - N/A   Clear